Regional Weather Roundup
Issued by NWS

Home | Current Version | Previous Version | Graphics & Text | Print | Product List | Glossary On
Versions: 1 2 3 4 5 6 7 8 9 10 11 12 13 14 15 16 17 18 19 20 21 22 23 24 25 26 27 28 29 30 31 32 33 34 35 36 37 38 39 40 41 42 43 44 45 46 47 48 49 50
000
ASUS43 KLMK 231202
RWRKY
KENTUCKY REGIONAL WEATHER ROUNDUP
NATIONAL WEATHER SERVICE LOUISVILLE KY
800 AM EDT WED JUL 23 2014

NOTE "FAIR" INDICATES FEW OR NO CLOUDS BELOW 12,000 FEET
WITH NO SIGNIFICANT WEATHER AND/OR OBSTRUCTIONS TO VISIBILITY.

KYZ001>023-026-027-061>063-070>075-231300-
WESTERN AND SOUTH CENTRAL KENTUCKY

CITY           SKY/WX    TMP DP  RH WIND       PRES   REMARKS
PADUCAH        MOSUNNY   74  69  85 SW5       30.02F HAZE
HENDERSON      SUNNY     72  66  83 CALM      30.04R
OWENSBORO      PTSUNNY   73  71  93 VRB3      30.05R
HOPKINSVILLE   SUNNY     74  74 100 S5        30.06S
BOWLING GREEN  SUNNY     75  71  87 SW5       30.06S
GLASGOW        SUNNY     71  71 100 CALM      30.07R FOG
$$

KYZ024-025-028>034-038-045-046-053-231300-
NORTH CENTRAL KENTUCKY

CITY           SKY/WX    TMP DP  RH WIND       PRES   REMARKS
LOUISVILLE/SDF MOSUNNY   80  71  74 CALM      30.05R
LOUISVILLE/LOU SUNNY     78  72  81 CALM      30.05R
FORT KNOX      SUNNY     73  71  95 CALM      30.05R
$$

KYZ035>037-039>044-047>052-055>060-089>105-231300-
NORTHEAST KENTUCKY

CITY           SKY/WX    TMP DP  RH WIND       PRES   REMARKS
LEXINGTON      MOSUNNY   74  70  87 SE3       30.08S
COVINGTON      LGT RAIN  74  67  78 E15G23    30.09R
FRANKFORT      MOSUNNY   74  71  91 CALM      30.05F
$$

KYZ054-064>069-076>088-106>120-231300-
SOUTHEAST KENTUCKY

CITY           SKY/WX    TMP DP  RH WIND       PRES   REMARKS
JACKSON        MOSUNNY   73  70  90 CALM      30.11R
LONDON         SUNNY     74  70  87 CALM      30.12R
SOMERSET       SUNNY     72  72 100 CALM      30.11S FOG
MIDDLESBORO    FOG       68  68 100 CALM      30.14R VSB 1/2
MONTICELLO     MOSUNNY   73  72  97 CALM      30.12R FOG
$$



USA.gov is the U.S. government's official web portal to all federal, state and local government web resources and services.